Regional Weather Roundup
Issued by NWS Cleveland, OH

Home | Current Version | Previous Version | Graphics & Text | Print | Product List | Glossary On
Versions: 1 2 3 4 5 6 7 8 9 10 11 12 13 14 15 16 17 18 19 20 21 22 23 24 25 26 27 28 29 30 31 32 33 34 35 36 37 38 39 40 41 42 43 44 45 46 47 48 49 50
000
ASUS41 KCLE 290910
RWRCLE
OHIO REGIONAL WEATHER ROUNDUP
NATIONAL WEATHER SERVICE CLEVELAND, OH
500 AM EDT WED JUL 29 2015

NOTE: "FAIR" INDICATES FEW OR NO CLOUDS BELOW 12,000 FEET WITH NO
SIGNIFICANT WEATHER AND/OR OBSTRUCTIONS TO VISIBILITY.

OHZ001>008-015>018-024>027-034-035-043-044-291000-
   NORTHWEST OHIO

CITY           SKY/WX    TMP DP  RH WIND       PRES   REMARKS
DEFIANCE       CLEAR     71  65  81 CALM      29.95
FINDLAY        PTCLDY    69  65  86 S5        29.96
TOLEDO EXPRESS CLEAR     66  65  96 CALM      29.95
TOLEDO EXEC    CLEAR     71  66  84 CALM      29.96
LIMA           CLEAR     70  67  90 SE6       29.97S
$$

OHZ009>014-019>023-028>033-038-089-291000-
   NORTHEAST OHIO

CITY           SKY/WX    TMP DP  RH WIND       PRES   REMARKS
CLE-HOPKINS    CLEAR     68  61  78 CALM      29.99S
CLE-LAKEFRONT  CLEAR     74  61  63 CALM      29.95S
CUY CO. ARPT   NOT AVBL
LORAIN-ELYRIA  CLEAR     63  61  93 CALM      29.98S
ASHTABULA      CLEAR     67  64  90 CALM      29.99F
AKRON-CANTON   CLEAR     70  63  78 NE3       29.99S
WOOSTER        CLEAR     63  61  93 CALM      29.99S
MANSFIELD      CLEAR     67  66  97 CALM      30.00R
YOUNGSTOWN     PTCLDY    67  63  87 E7        29.99F
$$

OHZ042-051>053-060>062-070>072-077>081-291000-
  SOUTHWEST OHIO

CITY           SKY/WX    TMP DP  RH WIND       PRES   REMARKS
CINC-COVINGTON PTCLDY    73  72  96 CALM      29.98R FOG
CINC-LUNKEN    FOG       72  72 100 CALM      29.97R VSB 1
HAMILTON       CLEAR     72  70  93 CALM      29.97R FOG
DAYTON         CLEAR     73  71  93 CALM      29.99R
WRIGHT-PAT AFB CLEAR     71  71 100 CALM      29.98R
DAYTON GENERAL CLEAR     72  69  90 NE3       29.97R
WILMINGTON     CLEAR     70  68  93 CALM      29.98R FOG
$$

OHZ036-037-039>041-045>050-054>059-063>069-073>076-082>088-291000-
  CENTRAL AND SOUTHEAST OHIO

CITY           SKY/WX    TMP DP  RH WIND       PRES   REMARKS
COLUMBUS       PTCLDY    71  67  87 N3        29.96R
OSU AIRPORT    CLEAR     71  68  90 N3        29.97R
BOLTON FIELD   CLEAR     69  69 100 CALM      29.98R FOG
RICKENBACK AFB CLEAR     71  69  93 CALM      29.96R FOG
NEWARK         CLEAR     67  66  97 CALM      29.97R FOG
MARION         CLEAR     67  64  90 CALM      29.98S FOG
LANCASTER      CLEAR     68  66  93 CALM      29.97R FOG
ZANESVILLE     CLEAR     69  66  90 CALM      29.96F FOG
NEW PHILLY     CLEAR     66  66 100 CALM      29.98F FOG
$$



USA.gov is the U.S. government's official web portal to all federal, state and local government web resources and services.